Location: The Rolnick Observatory
(41.1711°N, 73.3275°W)
Time: 07:56:48
(UTC-04:00)

Daily predictions for brighter satellites

Satellite Brightness Start Highest point End
(mag) Time Altitude Azimuth Time Altitude Azimuth Time Altitude Azimuth
SL-19 R/B 4.4 18:56:18 10° SSE 19:01:51 65° ENE 19:07:46 10° N
Cosmos 1371 Rocket 4.5 18:59:18 10° NNW 19:04:35 69° WSW 19:09:53 10° S
Cosmos 2297 3.7 18:58:57 10° NNW 19:04:39 82° ENE 19:10:17 10° SSE
Cosmos 2233 Rocket 4.3 18:59:51 10° SSW 19:06:09 77° W 19:12:31 10° N
Cosmos 1805 4.4 19:03:14 10° SE 19:06:21 23° E 19:09:31 10° NE
Cosmos 1953 3.3 19:04:04 10° SE 19:07:18 24° E 19:10:34 10° NE
ALOS 3.8 19:05:53 10° ESE 19:08:59 18° ENE 19:12:04 10° NNE
ISS -1.2 19:08:02 10° SSE 19:09:32 13° SE 19:11:01 10° ESE
Meteor 1-22 Rocket 4.0 19:05:24 10° S 19:10:44 74° E 19:16:01 10° NNE
USA 215 3.7 19:06:40 10° ENE 19:12:45 40° SE 19:18:48 10° SSW
MSX 4.3 19:07:06 10° S 19:12:48 69° WSW 19:18:34 10° NNW
SKYMED 2 3.8 19:09:47 10° N 19:14:09 76° WNW 19:18:28 10° SSW
Cosmos 2369 Rocket 3.8 19:10:38 10° N 19:14:14 17° NE 19:17:49 10° E
HJ-1C 4.4 19:12:54 10° SE 19:15:46 27° ENE 19:18:40 10° NNE
Cosmos 1707 4.0 19:12:43 10° NNW 19:16:25 45° W 19:20:06 10° SSW
Cosmos 1408 Rocket 3.9 19:12:46 10° N 19:16:56 43° ENE 19:21:03 10° SSE
Meteor 1-24 Rocket 3.8 19:12:12 10° N 19:17:51 87° W 19:23:16 10° S
IDEFIX/ARIANE 42P 4.3 19:13:42 10° SSW 19:18:32 39° W 19:23:27 10° NNW
Cosmos 1603 4.2 19:15:35 10° S 19:20:48 37° ESE 19:26:03 10° NE
GPS 2-04 Rocket1 4.3 19:19:07 10° SSW 19:21:25 17° SSE 19:23:38 11° ESE
NOAA 12 4.1 19:21:04 10° SSE 19:26:17 73° ENE 19:31:34 10° N
Aureole 2 Rocket 3.8 19:25:21 10° SSW 19:29:40 56° WNW 19:33:53 10° N
Cosmos 1470 4.2 19:27:18 10° SE 19:29:51 17° E 19:32:24 10° NE
SL-8 R/B 4.3 19:26:03 10° SSW 19:30:29 39° SE 19:34:16 14° ENE
ATLAS CENTAUR R/B 3.6 19:27:50 10° SW 19:32:39 83° SE 19:48:20 10° NE
SeaSat 1 4.0 19:35:14 14° ESE 19:35:14 14° ESE 19:37:14 10° SE
Cosmos 724 4.4 19:28:57 10° SSW 19:34:44 59° ESE 19:40:42 10° NE
SAR-Lupe-1 4.3 19:32:22 10° S 19:35:53 70° WSW 19:39:27 10° NNW
SJ-6B 3.0 19:33:24 10° S 19:37:23 76° W 19:41:28 10° NNW
In-Cosmos 22 4.2 19:33:08 10° N 19:38:56 74° E 19:44:40 10° SSE
Resurs 1-3 3.9 19:35:02 10° SE 19:39:12 45° ENE 19:43:24 10° N
Meteor 1-29 3.4 19:37:05 10° NNE 19:40:24 39° E 19:43:42 10° S
Helios 1A 3.1 19:36:31 10° SSE 19:40:36 53° ENE 19:44:44 10° N
FREGAT/IRIS 2.7 19:37:46 10° S 19:40:51 81° W 19:43:57 10° NNW
TELKOM 3 4.4 19:39:04 10° NW 19:41:35 28° NNE 19:42:22 22° NE
Resurs 01 Rocket 1.6 19:37:57 10° SSE 19:42:21 65° ENE 19:46:47 10° N
CZ-4B DEB 3.9 19:41:22 22° ESE 19:42:25 26° ENE 19:45:12 10° NNE
Cosmos 1674 3.6 19:41:33 10° NNE 19:44:56 28° ENE 19:46:25 22° ESE
Cosmos 1743 Rocket 3.9 19:41:52 10° N 19:46:07 43° ENE 19:50:19 10° SSE
NOSS 3-2 (A) 4.0 19:40:42 10° SW 19:46:42 62° NW 19:53:20 10° NNE
FengYun 1-2 T 4.2 19:42:42 10° SSE 19:48:05 60° ENE 19:53:30 10° N
Cosmos 1758 3.3 19:46:09 10° S 19:50:13 84° E 19:54:21 10° N
Cosmos 1452 Rocket 3.5 19:45:56 10° NNW 19:51:14 84° WSW 19:56:28 10° SSE
ATLAS 5 CENTAUR R/B 2.2 19:51:36 10° SW 19:56:20 66° NW 20:01:31 10° NNE
Abrixas 2.5 19:54:07 10° SW 19:57:03 56° SSE 19:57:41 43° E
Nadezhda 4 Rocket 3.9 19:53:53 10° N 20:00:09 67° E 20:06:18 10° SSE
Cosmos 1346 2.8 19:58:23 10° N 20:01:22 74° E 20:02:37 31° SSE
Meteor 2-12 Rocket 4.4 19:58:10 10° S 20:04:20 89° E 20:10:31 10° N
Meteor 1-21 Rocket 4.2 20:02:14 10° N 20:07:49 85° W 20:13:20 10° S
Cosmos 1092 Rocket 4.0 20:01:59 10° N 20:08:05 56° E 20:13:46 12° SSE
GP-B 3.7 20:04:22 10° NNE 20:08:19 33° E 20:08:19 33° E
ASTEX 1 3.3 20:06:45 10° NNE 20:11:37 61° E 20:16:26 10° S
Cosmos 1420 Rocket 3.9 20:07:03 10° NNW 20:12:24 83° ENE 20:16:34 17° SSE
SL-16 R/B 4.1 20:12:31 10° WSW 20:17:29 30° NW 20:22:30 10° N
Helios 1B rocket 3.1 20:13:38 10° N 20:17:40 56° WNW 20:21:41 10° SSW
CENTAUR R/B 2.6 20:12:19 10° SSW 20:18:05 52° ESE 20:24:34 10° NE
Cosmos 1544 3.6 20:15:48 10° SSW 20:19:29 61° W 20:23:13 10° N
Cosmos 2026 Rocket 4.4 20:15:41 10° N 20:21:23 39° ENE 20:22:37 36° ESE
Cosmos 1634 Rocket 4.0 20:17:19 10° SSE 20:23:23 56° E 20:29:26 10° NNE
CZ-2D R/B 3.1 20:24:44 49° SSE 20:25:44 84° ENE 20:29:39 10° N
OAO 3 Rocket 4.0 20:24:57 10° WSW 20:29:18 36° S 20:30:04 34° SSE
Cosmos 1048 Rocket 4.1 20:26:00 10° SSW 20:31:18 80° WNW 20:36:35 10° NNE
Cosmos 1269 Rocket 4.3 20:26:37 10° SSW 20:31:52 68° WNW 20:37:08 10° NNE
FENGYUN 3A 3.8 20:28:51 11° S 20:34:00 74° WSW 20:39:24 10° NNW
Envisat 3.9 20:39:20 32° NE 20:39:20 32° NE 20:42:54 10° N
H-2A R/B 3.0 20:39:09 51° SSW 20:39:55 66° W 20:43:47 10° NNW
Gbstr 26 Del rocket 3.2 20:38:21 10° SW 20:42:51 70° SE 20:42:57 69° SE
Cosmos 2195 Rocket 4.4 20:37:05 10° N 20:43:25 68° E 20:45:27 44° SSE
Cosmos 2151 3.5 20:39:31 10° N 20:42:41 48° NNE 20:42:41 48° NNE
Cosmos 1174 4.4 20:40:25 10° SSW 20:44:15 52° SSW 20:44:15 52° SSW
ISS -1.5 20:42:22 10° WSW 20:44:06 29° WSW 20:44:06 29° WSW
ALOS 3.1 20:42:16 15° S 20:46:02 49° W 20:50:34 10° NNW
BREEZE-M DEB (TANK) 3.3 20:40:19 10° WNW 20:51:15 62° N 20:52:03 54° NE
USA 215 3.7 20:49:37 11° NE 20:55:54 61° NW 21:02:18 10° WSW
Cosmos 158 Rocket 3.8 20:51:34 10° SSW 20:56:27 78° WNW 21:01:21 10° NNE
Cosmos 2369 Rocket 2.1 20:53:17 10° NNW 20:58:58 82° WSW 20:59:46 66° S
Cosmos 1943 Rocket 2.8 20:53:39 10° NNW 20:58:07 41° NNE 20:58:07 41° NNE
Cosmos 1943 3.2 20:53:49 10° SSW 20:59:26 78° WNW 21:05:06 10° NNE
Cosmos 2263 4.1 21:00:16 10° NNW 21:05:59 83° NE 21:05:59 83° NE
SeaSat 1 3.9 21:07:36 10° NNE 21:15:13 27° SW 21:17:27 10° SW
SL-8 R/B 4.4 21:08:14 10° WSW 21:12:17 52° NW 21:12:17 52° NW
ERS-1 Rocket 3.6 21:15:21 50° N 21:15:21 50° N 21:19:03 10° NNW
Cosmos 2279 Rocket 4.5 21:46:27 56° WNW 21:46:27 56° WNW 21:52:12 10° N
CENTAUR R/B 4.0 22:03:24 10° WSW 22:09:02 34° NW 22:15:19 10° NNE
